Sisseton, SD

4:57 AM CDT on August 22, 2017 (GMT -0500)
Sisseton

Weather History for K8D3 - February, 2014

Change the Weather History Date:

Monday, February 17, 2014

  Actual Average Record
Temperature  
Mean Temperature 29 °F 19 °F  
Max Temperature 39 °F 28 °F 61 °F (1981)
Min Temperature 18 °F 9 °F -28 °F (1936)
Degree Days  
Heating Degree Days 36 46  
Month to date heating degree days 990 829  
Since 1 July heating degree days 6258 5775  
Cooling Degree Days 0 0  
Month to date cooling degree days 0 0  
Year to date cooling degree days 0 0  
Moisture  
Dew Point 23 °F    
Average Humidity 80    
Maximum Humidity 100    
Minimum Humidity 59    
Precipitation  
Precipitation 0.07 in 0.02 in 0.37 in (1998)
Month to date precipitation 0.08 0.22  
Year to date precipitation 0.58 0.65  
Snow  
Snow 0.90 in - - ()
Month to date snowfall 1.1  
Since 1 July snowfall 21.3  
Snow Depth 3.00 in    
Sea Level Pressure  
Sea Level Pressure 29.73 in    
Wind  
Wind Speed 13 mph (West)    
Max Wind Speed 29 mph    
Max Gust Speed 38 mph    
T = Trace of Precipitation, MM = Missing Value Source: NWS Daily Summary

Daily Weather History Graph

Daily Weather History Graph

Search for Another Location

Airport or City:

Trip Planner

Search our weather history database for the weather conditions in past years. The results will help you decide how hot, cold, wet, or windy it might be!

Date:

Astronomy

Feb. 17, 2014 Rise Set
Actual Time 7:26 AM CST 5:57 PM CST
Civil Twilight 6:56 AM CST 6:28 PM CST
Nautical Twilight 6:21 AM CST 7:02 PM CST
Astronomical Twilight 5:47 AM CST 7:37 PM CST
Moon 9:05 PM CST (2/17) 8:18 AM CST (2/17)
Length of Visible Light 11h 31m
Length of Day
10h 31m
Waning Gibbous, 93% of the Moon is Illuminated
Feb 17
Waning Gibbous
Feb 22
Last Quarter
Mar 1
New
Mar 8
First Quarter
Mar 16
Full

Hourly Weather History & Observations

Time (CST) Temp. Windchill Dew Point Humidity Pressure Visibility Wind Dir Wind Speed Gust Speed Precip Events Conditions
12:56 AM 19.0 °F 6.8 °F 16.0 °F 88% 29.80 in - SSE 11.5 mph - N/A   Unknown
1:56 AM 19.9 °F 9.3 °F 17.1 °F 89% 29.77 in - SSE 9.2 mph - N/A   Unknown
2:56 AM 19.9 °F 9.3 °F 17.1 °F 89% 29.74 in - SSE 9.2 mph - 0.01 in   Unknown
3:56 AM 19.9 °F - 19.0 °F 96% 29.74 in - Calm Calm - 0.02 in   Unknown
4:56 AM 19.9 °F - 18.0 °F 92% 29.74 in - Calm Calm - 0.03 in   Unknown
5:56 AM 19.9 °F 14.9 °F 19.0 °F 96% 29.76 in - WNW 3.5 mph - 0.01 in   Unknown
6:56 AM 21.9 °F - 19.0 °F 89% 29.74 in - Calm Calm - N/A   Unknown
7:56 AM 19.9 °F 12.1 °F 18.0 °F 92% 29.74 in - NW 5.8 mph - N/A   Unknown
8:56 AM 28.0 °F 15.3 °F 21.9 °F 78% 29.73 in - WNW 18.4 mph - N/A   Unknown
9:56 AM 30.9 °F 18.7 °F 23.0 °F 72% 29.74 in - NW 19.6 mph - N/A   Unknown
10:56 AM 33.1 °F 22.2 °F 24.1 °F 70% 29.75 in - NW 17.3 mph 28.8 mph N/A   Unknown
11:56 AM 35.1 °F 23.5 °F 25.0 °F 67% 29.76 in - NW 21.9 mph - N/A   Unknown
12:56 PM 37.0 °F 25.6 °F 27.0 °F 67% 29.75 in - NW 24.2 mph 27.6 mph N/A   Unknown
1:56 PM 37.9 °F 28.5 °F 27.0 °F 65% 29.75 in - NW 17.3 mph - N/A   Unknown
2:56 PM 39.0 °F 30.3 °F 27.0 °F 62% 29.75 in - WNW 16.1 mph - N/A   Unknown
3:56 PM 39.0 °F 30.3 °F 27.0 °F 62% 29.76 in - West 16.1 mph 19.6 mph N/A   Unknown
4:56 PM 37.9 °F 30.0 °F 27.0 °F 65% 29.76 in - West 12.7 mph - N/A   Unknown
5:56 PM 35.1 °F 28.6 °F 26.1 °F 70% 29.76 in - West 8.1 mph - N/A   Unknown
6:56 PM 35.1 °F 25.2 °F 26.1 °F 70% 29.72 in - West 16.1 mph - N/A   Unknown
7:56 PM 35.1 °F 25.5 °F 26.1 °F 70% 29.70 in - WSW 15.0 mph - N/A   Unknown
8:56 PM 34.0 °F 24.2 °F 25.0 °F 70% 29.68 in - WSW 15.0 mph - N/A   Unknown
9:56 PM 35.1 °F 25.5 °F 24.1 °F 64% 29.65 in - WSW 15.0 mph - N/A   Unknown
10:56 PM 36.0 °F 27.1 °F 23.0 °F 59% 29.63 in - WSW 13.8 mph - N/A   Unknown
11:56 PM 37.0 °F 27.0 °F 23.0 °F 57% 29.60 in - SW 18.4 mph - N/A   Unknown